TIME,�g��[���C[MJ/h],����[MJ/h],�Ɩ�[MJ/h],�~�[[MJ/h],�①��[MJ/h],��y���[MJ/h],�Ǝ��q��[MJ/h],���̑��s��[MJ/h],�u�����`������[MJ/h]
2003/4/1 0:00,0.38448,0,0.44928,0.02304,0.02736,0.5184,0.07776,0,-0.0936
2003/4/1 0:15,0.38304,0,0.40032,0.02448,0.4248,0.52128,0.07776,0,-0.144
2003/4/1 0:30,0.35712,0,0.3744,0.02304,0.1152,0.51264,0.08352,0,-0.07344
2003/4/1 0:45,0.34992,0,0.50832,0.0216,0.08352,0.30096,0.08064,0,-0.04464
2003/4/1 1:00,0.19296,0,0.59616,0.03312,0.42912,0.40176,0.07776,0,-0.10512
2003/4/1 1:15,0.11664,0,0.07344,0.02304,0.0864,0.39024,0.0792,0,0.02736
2003/4/1 1:30,0.13248,0,0.07776,0.02304,0.1224,0.3888,0.0792,0,0.01152
2003/4/1 1:45,0.1224,0,0.072,0.03312,0.4248,0.3888,0.08064,0,-0.00576
2003/4/1 2:00,0.10944,0,0.07344,0.0216,0.01872,0.3888,0.07776,0,0.03456
2003/4/1 2:15,0.10656,0,0.07632,0.02448,0.1944,0.3888,0.07632,0,0.0144
2003/4/1 2:30,0.10944,0,0.072,0.0288,0.37152,0.37728,0.08352,0,0.00144
2003/4/1 2:45,0.108,0,0.07056,0.0216,0,0.37584,0.07776,0,0.02592
2003/4/1 3:00,0.10944,0,0.072,0.03024,0.25776,0.35136,0.07776,0,0.00288
2003/4/1 3:15,0.10656,0,0.07056,0.0288,0.30816,0.3456,0.07632,0,0.00576
2003/4/1 3:30,0.11088,0,0.0648,0.0216,0,0.3456,0.0792,0,0.03312
2003/4/1 3:45,0.108,0,0.072,0.03168,0.32256,0.3456,0.0792,0,0.00432
2003/4/1 4:00,0.10368,0,0.06912,0.02592,0.22752,0.3456,0.0792,0,0.0144
2003/4/1 4:15,0.11088,0,0.0648,0.0216,0,0.3456,0.07776,0,0.03168
2003/4/1 4:30,0.10944,0,0.06624,0.03312,0.40032,0.3456,0.0792,0,-0.00576
2003/4/1 4:45,0.10368,0,0.07488,0.02304,0.15264,0.3456,0.08352,0,0.01728
2003/4/1 5:00,0.11088,0,0.06768,0.02304,0.04752,0.3456,0.08064,0,0.03456
2003/4/1 5:15,0.1008,0,0.06624,0.03312,0.42192,0.3456,0.0792,0,-0.00144
2003/4/1 5:30,0.10512,0,0.0648,0.02304,0.07488,0.3456,0.0792,0,0.01872
2003/4/1 5:45,0.1008,0,0.0648,0.02304,0.12528,0.3456,0.07776,0,0.036
2003/4/1 6:00,0.10944,0,0.06624,0.02736,0.40896,0.3456,0.08064,0,-0.00432
2003/4/1 6:15,0.10512,0,0.05616,0.0216,0,0.27648,0.08208,0,0.05616
2003/4/1 6:30,0.10656,0,0.04608,0.02448,0.20736,0.21312,0.08064,0,0.05616
2003/4/1 6:45,0.10656,0,0.04464,0.02448,0.33408,0.21168,0.0792,0,0.04896
2003/4/1 7:00,0.108,0,1.82304,0.0216,0,0.22176,0.08496,0,-0.16848
2003/4/1 7:15,0.108,0,2.10816,0.02448,0.28368,0.22608,0.08208,0,-0.19872
2003/4/1 7:30,0.20304,0,2.24928,1.3752,0.43056,0.21312,0.10224,0,-0.25776
2003/4/1 7:45,0.17568,0,2.81664,1.4184,0.02016,0.21168,0.08352,0,-0.144
2003/4/1 8:00,0.1656,0,2.55744,0.86112,0.16992,0.21024,0.34416,0,-0.22464
2003/4/1 8:15,0.12096,0,1.96416,0.1296,0.42192,0.21168,0.08784,0,-0.17712
2003/4/1 8:30,0.108,0,1.99872,0.07632,0.03456,0.41472,0.08352,0,-0.19584
2003/4/1 8:45,0.108,0,2.01024,0.0792,0.17136,0.42048,0.08352,0,-0.21312
2003/4/1 9:00,0.108,0,1.99296,0.0792,0.40464,0.39888,0.08208,0,-0.22752
2003/4/1 9:15,0.11088,0,1.99728,0.06912,0,0.3816,0.11808,0,-0.19008
2003/4/1 9:30,0.13392,0,2.0016,0.06336,0.21744,0.4392,0.05184,0,-0.2232
2003/4/1 9:45,0.13104,0,1.98576,0.06912,0.3816,0.42912,0.11376,0,-0.24336
2003/4/1 10:00,0.13536,0,1.99728,0.06336,0,0.43344,0.08352,0,-0.2016
2003/4/1 10:15,0.13536,0,2.02032,0.06192,0.24768,0.42768,0.08496,0,-0.2232
2003/4/1 10:30,0.18,0,1.95264,0.5256,0.3384,0.4032,0.05472,0,-0.31392
2003/4/1 10:45,0.17568,0,1.96704,0.43488,0.01296,0.40464,0.08208,0,-0.2808
2003/4/1 11:00,0.17568,0,2.11392,0.0936,0.29808,0.3888,0.0864,0,-0.26208
2003/4/1 11:15,0.13392,0,2.05632,0.09936,0.44784,0.39168,0.08496,0,-0.252
2003/4/1 11:30,0.11232,0,1.9728,0.09216,0.54,0.40176,0.09504,0,-0.26784
2003/4/1 11:45,0.56736,0,2.09952,0.09216,0.54,0.27648,0.1008,0,-0.32544
2003/4/1 12:00,2.03616,0,2.07792,0.09504,0.432,0.22176,0.0504,0,-0.33696
2003/4/1 12:15,1.29168,0,1.98432,0.1008,0.49968,0.34848,0.08064,0,-0.28944
2003/4/1 12:30,1.1952,0,2.05056,0.09504,0.47952,0.29808,0.11808,0,-0.32256
2003/4/1 12:45,1.23696,0,1.96992,0.0936,0.45936,0.33696,0.0504,0,-0.3168
2003/4/1 13:00,0.64944,0,1.78848,0.09504,0.4392,0.32256,0.11664,0,-0.2664
2003/4/1 13:15,0.15696,0,1.59984,0.09504,0.1008,0.30816,0.0504,0,-0.15984
2003/4/1 13:30,0.1512,0,1.23408,0.09216,0.15696,0.30816,0.08352,0,-0.12096
2003/4/1 13:45,0.21456,0,0.94896,0.35856,0.4536,0.41328,0.11376,0,-0.14688
2003/4/1 14:00,0.1944,0,0.96048,0.25776,0.41184,0.4176,0.0792,0,-0.07488
2003/4/1 14:15,0.1944,0,0.9792,0.1224,0,0.44352,0.08496,0,-0.10512
2003/4/1 14:30,0.1944,0,0.96912,0.0792,0.2376,0.40176,0.08208,0,-0.09792
2003/4/1 14:45,0.1944,0,1.00224,0.07632,0.44496,0.42912,0.08496,0,-0.1296
2003/4/1 15:00,0.1944,0,0.96912,0.06912,0.19584,0.42048,0.08064,0,-0.0864
2003/4/1 15:15,0.18864,0,0.9792,0.0648,0.01296,0.40752,0.08208,0,-0.0792
2003/4/1 15:30,0.1944,0,0.97056,0.06912,0.4464,0.41904,0.07344,0,-0.11088
2003/4/1 15:45,0.1944,0,0.9792,0.07056,0.37728,0.4392,0.08064,0,-0.11952
2003/4/1 16:00,0.20448,0,0.96192,0.06192,0,0.43632,0.0792,0,-0.0864
2003/4/1 16:15,0.19008,0,0.95904,0.08064,0.25632,0.42336,0.08064,0,-0.07344
2003/4/1 16:30,0.20592,0,0.94896,0.0936,0.43488,0.44496,0.08064,0,-0.13968
2003/4/1 16:45,0.22896,0,0.94896,0.0936,0.08928,0.44064,0.0864,0,-0.11088
2003/4/1 17:00,0.20016,0,0.85824,0.09216,0.11808,0.37728,0.08208,0,-0.05184
2003/4/1 17:15,0.14544,0,1.40688,0.09504,0.43776,0.21024,0.0792,0,-0.11376
2003/4/1 17:30,0.12672,0,1.50048,0.09216,0.24336,0.21024,0.08208,0,-0.108
2003/4/1 17:45,0.12528,0,1.1664,0.03888,0,0.36,0.07632,0,-0.05328
2003/4/1 18:00,0.10368,0,1.18224,0.02448,0.38736,0.4248,0.07344,0,-0.06624
2003/4/1 18:15,0.57744,0,1.24272,0.02736,0.36432,0.43056,0.07776,0,-0.1152
2003/4/1 18:30,1.44864,0,1.76832,0.0216,0,0.3024,0.08784,0,-0.16272
2003/4/1 18:45,1.39104,0,2.53584,0.03024,0.27936,0.22896,0.08208,0,-0.28656
2003/4/1 19:00,1.13904,0,2.6064,0.02736,0.42624,0.216,0.08208,0,-0.27072
2003/4/1 19:15,0.36144,0,2.24784,0.0216,0.0288,0.20448,0.08352,0,-0.12096
2003/4/1 19:30,0.288,0,2.20464,0.02592,0.21168,0.21024,0.0864,0,-0.144
2003/4/1 19:45,0.27504,0,2.21184,0.03312,0.42336,0.21024,0.08352,0,-0.16272
2003/4/1 20:00,0.83952,0,2.7216,0.02304,0.07344,0.33552,0.08064,0,-0.27072
2003/4/1 20:15,1.00368,0,2.77776,0.02448,0.15984,0.41616,0.08064,0,-0.32688
2003/4/1 20:30,1.44864,0,2.78352,0.02448,0.43344,0.21312,0.0792,0,-0.28656
2003/4/1 20:45,0.9288,0,2.51424,0.02736,0.11376,0.21024,0.08352,0,-0.19728
2003/4/1 21:00,1.71504,0,2.18448,0.0216,0.11232,0.26352,0.07776,0,-0.25488
2003/4/1 21:15,1.34496,0,1.72944,0.0288,0.4248,0.21024,0.108,0,-0.21888
2003/4/1 21:30,1.23408,0,1.83168,0.02592,0.13824,0.21168,0.08064,0,-0.20736
2003/4/1 21:45,0.54432,0,1.22976,0.02592,0.09648,0.21024,0.08208,0,-0.12384
2003/4/1 22:00,0.44928,0,1.43136,0.02736,0.432,0.21168,0.32112,0,-0.17568
2003/4/1 22:15,0.41328,0,0.70848,0.02448,0.1512,0.21168,0.0792,0,-0.036
2003/4/1 22:30,0.3888,0,0.36432,0.0216,0.08064,0.2088,0.08064,0,-0.0072
2003/4/1 22:45,0.37152,0,0.34272,0.03024,0.42336,0.21312,0.08064,0,-0.0216
2003/4/1 23:00,0.34704,0,1.04688,0.02592,0.11232,0.29664,0.08064,0,-0.10512
2003/4/1 23:15,0.35136,0,1.00368,0.02304,0.10224,0.216,0.5544,0,-0.14256
2003/4/1 23:30,0.3528,0,1.34352,0.02736,0.4248,0.21024,0.96912,0,-0.30672
2003/4/1 23:45,0.24336,0,0.68688,0.02304,0.1296,0.22608,0.504,0,-0.1152
2003/4/2 0:00,0.10512,0,0.04608,0.0216,0.08352,0.21888,0.07632,0,0.07056
2003/4/2 0:15,0.1008,0,0.05184,0.0288,0.42336,0.21456,0.07776,0,0.05184
2003/4/2 0:30,0.108,0,0.0504,0.02304,0.0648,0.21024,0.08352,0,0.08208
2003/4/2 0:45,0.10224,0,0.0432,0.02448,0.15264,0.21024,0.0792,0,0.0864
2003/4/2 1:00,0.10944,0,0.04608,0.03024,0.43056,0.21312,0.07776,0,0.05472
2003/4/2 1:15,0.1008,0,0.0432,0.0216,0.03024,0.21312,0.07632,0,0.1008
2003/4/2 1:30,0.09936,0,0.05472,0.02448,0.1872,0.21312,0.0792,0,0.0792
2003/4/2 1:45,0.1008,0,0.0432,0.03312,0.3816,0.21168,0.07632,0,0.06192
2003/4/2 2:00,0.10944,0,0.04896,0.0216,0,0.21024,0.0504,0,0.08784
2003/4/2 2:15,0.108,0,0.05184,0.02448,0.26064,0.21024,0.08352,0,0.04752
2003/4/2 2:30,0.09936,0,0.04752,0.02448,0.35712,0.21312,0.07488,0,0.06192
2003/4/2 2:45,0.10512,0,0.0432,0.0216,0,0.21168,0.07488,0,0.09936
2003/4/2 3:00,0.10224,0,0.0504,0.0288,0.2808,0.21168,0.07776,0,0.06624
2003/4/2 3:15,0.09936,0,0.0432,0.02736,0.26496,0.21312,0.07488,0,0.072
2003/4/2 3:30,0.10512,0,0.0432,0.0216,0,0.21312,0.08064,0,0.09504
2003/4/2 3:45,0.10512,0,0.04464,0.02592,0.36288,0.21312,0.08352,0,0.06336
2003/4/2 4:00,0.1008,0,0.0432,0.02592,0.2376,0.21168,0.07632,0,0.072
2003/4/2 4:15,0.10656,0,0.04608,0.0216,0,0.21312,0.07776,0,0.09504
2003/4/2 4:30,0.108,0,0.04464,0.0288,0.38304,0.21168,0.07776,0,0.05904
2003/4/2 4:45,0.10944,0,0.04464,0.02304,0.16272,0.21168,0.07776,0,0.07632
2003/4/2 5:00,0.09648,0,0.05184,0.02304,0.03168,0.21312,0.08064,0,0.0864
2003/4/2 5:15,0.10944,0,0.0432,0.02736,0.42192,0.21168,0.0792,0,0.05616
2003/4/2 5:30,0.10368,0,0.05184,0.02448,0.08784,0.21024,0.07488,0,0.08496
2003/4/2 5:45,0.10512,0,0.04752,0.02304,0.09504,0.21024,0.08496,0,0.07632
2003/4/2 6:00,0.10368,0,0.0504,0.0288,0.42192,0.21024,0.08352,0,0.04896
2003/4/2 6:15,0.10368,0,0.0576,0.0216,0.03888,0.21312,0.08352,0,0.08208
2003/4/2 6:30,0.10944,0,0.0432,0.0216,0.1512,0.21312,0.0792,0,0.0792
2003/4/2 6:45,0.09936,0,0.0432,0.02592,0.40896,0.21168,0.07776,0,0.06048
2003/4/2 7:00,0.108,0,0.24192,0.0216,0,0.22032,0.08208,0,0.07632
2003/4/2 7:15,0.20016,0,1.16352,1.116,0.19728,0.21168,0.23328,0,-0.09504
2003/4/2 7:30,0.24624,0,1.02384,2.65248,0.45072,0.21024,0.0792,0,-0.19728
2003/4/2 7:45,0.28224,0,1.82736,2.19312,0.036,0.21024,0.08352,0,-0.09216
2003/4/2 8:00,0.27072,0,2.14416,0.14688,0.16704,0.21024,0.12528,0,-0.16272
2003/4/2 8:15,0.11952,0,2.26368,0.02304,0.39312,0.21456,0.10512,0,-0.21312
2003/4/2 8:30,0.46368,0,2.41776,0.324,0.01008,0.30384,0.42912,0,-0.37008
2003/4/2 8:45,0.46656,0,2.4336,0.4176,0.23328,0.40752,0.10656,0,-0.36864
2003/4/2 9:00,0.45504,0,2.16432,0.03024,0.37296,0.23472,0.08208,0,-0.21312
2003/4/2 9:15,0.4464,0,1.06128,0.0216,0,0.41472,0.08352,0,-0.09216
2003/4/2 9:30,0.40608,0,1.04832,0.02448,0.24624,0.40896,0.0864,0,-0.11232
2003/4/2 9:45,0.40896,0,1.0368,0.0216,0.31824,0.42336,0.08208,0,-0.10368
2003/4/2 10:00,0.41472,0,1.05552,0.0216,0,0.42912,0.07632,0,-0.09936
2003/4/2 10:15,0.40608,0,1.17792,0.02304,0.29952,0.38592,0.0864,0,-0.12384
2003/4/2 10:30,0.4104,0,1.39536,0.02304,0.28224,0.3816,0.08064,0,-0.13968
2003/4/2 10:45,0.40896,0,1.33632,0.0216,0,0.38304,0.08208,0,-0.08784
2003/4/2 11:00,0.36432,0,1.40832,0.02592,0.31968,0.36864,0.08352,0,-0.13104
2003/4/2 11:15,0.3672,0,1.48032,0.02304,0.45648,0.44784,0.08208,0,-0.1584
2003/4/2 11:30,0.34848,0,1.46448,0.0216,0.54,0.38304,0.0792,0,-0.15984
2003/4/2 11:45,0.32976,0,1.54368,0.0216,0.54,0.21312,0.0864,0,-0.15984
2003/4/2 12:00,0.34848,0,1.53072,0.41472,0.43056,0.22176,0.08064,0,-0.17136
2003/4/2 12:15,0.34992,0,1.46016,0.17856,0.52272,0.21168,0.08208,0,-0.15408
2003/4/2 12:30,0.32112,0,1.63872,0.03024,0.47664,0.21168,0.07632,0,-0.11808
2003/4/2 12:45,0.34992,0,1.8216,0.02448,0.45648,0.21168,0.0792,0,-0.10512
2003/4/2 13:00,0.14256,0,0.47952,0.03024,0.432,0.21024,0.07776,0,-0.01584
2003/4/2 13:15,0.108,0,0.41904,0.0216,0.04752,0.21456,0.08208,0,0.02736
2003/4/2 13:30,0.108,0,0.42192,0.02592,0.20016,0.21168,0.08064,0,0.00432
2003/4/2 13:45,0.108,0,0.41904,0.03024,0.432,0.21168,0.08064,0,-0.01152
2003/4/2 14:00,0.108,0,0.42048,0.0216,0.13392,0.21312,0.0792,0,0.01584
2003/4/2 14:15,0.108,0,0.41184,0.02448,0.07488,0.21312,0.08064,0,0.0216
2003/4/2 14:30,0.108,0,0.42624,0.0288,0.43776,0.21312,0.08064,0,-0.01728
2003/4/2 14:45,0.108,0,0.41904,0.02304,0.22032,0.21168,0.08208,0,0.0144
2003/4/2 15:00,0.108,0,0.41184,0.0216,0,0.21312,0.07488,0,0.02448
2003/4/2 15:15,0.108,0,0.4032,0.02736,0.40752,0.21168,0.0792,0,0.00576
2003/4/2 15:30,0.108,0,0.41328,0.02304,0.19584,0.21312,0.0792,0,0.01296
2003/4/2 15:45,0.108,0,0.4104,0.0216,0.01008,0.21168,0.08064,0,0.02448
2003/4/2 16:00,0.108,0,0.41184,0.02592,0.42624,0.21024,0.08208,0,-0.0072
2003/4/2 16:15,0.108,0,0.41328,0.02448,0.16272,0.21312,0.07776,0,0.01152
2003/4/2 16:30,0.108,0,0.40752,0.0216,0.05328,0.21024,0.08352,0,0.02448
2003/4/2 16:45,0.108,0,0.57312,0.02304,0.42192,0.21456,0.08208,0,-0.01872
2003/4/2 17:00,0.108,0,1.49184,0.02448,0.11232,0.2376,0.04896,0,-0.12096
2003/4/2 17:15,0.108,0,1.78128,0.57744,0.1224,0.42336,0.10944,0,-0.27936
2003/4/2 17:30,0.108,0,1.66896,0.02592,0.42336,0.28944,0.0792,0,-0.2016
2003/4/2 17:45,0.2016,0,1.60272,0.0216,0.21888,0.21024,0.0792,0,-0.1296
2003/4/2 18:00,0.28656,0,1.6416,0.0216,0,0.2088,0.08064,0,-0.11664
2003/4/2 18:15,0.27792,0,1.90224,0.02736,0.41328,0.21168,0.0792,0,-0.17568
2003/4/2 18:30,1.31616,0,2.25072,0.02448,0.28368,0.21744,0.08208,0,-0.26064
2003/4/2 18:45,1.5768,0,2.50848,0.0216,0,0.21024,0.08352,0,-0.25056
2003/4/2 19:00,1.48176,0,2.56464,0.02736,0.33264,0.41184,0.08352,0,-0.3168
2003/4/2 19:15,1.26144,0,2.5344,0.02304,0.25488,0.52128,0.08208,0,-0.30096
2003/4/2 19:30,1.41408,0,2.30112,0.63792,0.01728,0.27216,0.08496,0,-0.32688
2003/4/2 19:45,1.23696,0,2.3184,0.34416,0.39312,0.21168,0.08208,0,-0.36576
2003/4/2 20:00,1.3608,0,2.17152,0.02592,0.29952,0.2088,0.05328,0,-0.25488
2003/4/2 20:15,1.23984,0,2.75616,0.33408,0.01152,0.21456,0.08208,0,-0.35712
2003/4/2 20:30,1.33056,0,2.89584,0.4032,0.32688,0.29232,0.08208,0,-0.3888
2003/4/2 20:45,1.25136,0,2.76768,0.2592,0.33408,0.43632,0.10656,0,-0.35712
2003/4/2 21:00,1.19808,0,2.62944,0.0216,0,0.3744,0.0792,0,-0.2808
2003/4/2 21:15,1.53792,0,1.44432,0.02448,0.29664,0.21024,0.08064,0,-0.19728
2003/4/2 21:30,0.5616,0,0.83952,0.0216,0.28368,0.21168,0.08352,0,0
2003/4/2 21:45,0.55584,0,0.91728,0.0216,0,0.21024,0.08352,0,-0.09792
2003/4/2 22:00,0.43776,0,0.89568,0.02736,0.3456,0.21312,0.08064,0,-0.12384
2003/4/2 22:15,0.30096,0,1.02816,0.0216,0.29952,0.21024,0.56592,0,-0.12384
2003/4/2 22:30,0.2952,0,0.60912,0.0216,0,0.21312,0.08208,0,0.00288
2003/4/2 22:45,0.33408,0,0.74592,0.0288,0.30816,0.21024,0.08352,0,-0.0504
2003/4/2 23:00,0.30384,0,0.97488,0.02448,0.2592,0.21024,0.08496,0,-0.08784
2003/4/2 23:15,0.33264,0,0.936,0.0216,0,0.2088,0.08064,0,-0.06048
2003/4/2 23:30,0.1728,0,1.48752,0.45936,0.38304,0.2088,0.66672,0,-0.2952
2003/4/2 23:45,0.108,0,1.73952,0.02592,0.32688,0.21168,0.07776,0,-0.16416
2003/4/3 0:00,0.108,0,1.36224,0.0216,0,0.2088,1.3536,0,-0.23328
2003/4/3 0:15,0.10368,0,1.06992,0.02448,0.2664,0.21024,0.08352,0,-0.07056
2003/4/3 0:30,0.10512,0,0.40752,0.02304,0.29376,0.2232,0.08064,0,0.0144
2003/4/3 0:45,0.108,0,0.04608,0.0216,0,0.216,0.08064,0,0.09216
2003/4/3 1:00,0.10656,0,0.05616,0.0288,0.32976,0.21312,0.07776,0,0.05616
2003/4/3 1:15,0.10656,0,0.0432,0.02736,0.29088,0.216,0.08496,0,0.06768
2003/4/3 1:30,0.09936,0,0.04752,0.0216,0,0.21312,0.0792,0,0.08496
2003/4/3 1:45,0.1008,0,0.0432,0.02304,0.31536,0.216,0.08208,0,0.072
2003/4/3 2:00,0.11088,0,0.0432,0.0216,0.23616,0.21312,0.08208,0,0.06768
2003/4/3 2:15,0.10656,0,0.0432,0.0216,0,0.21456,0.08784,0,0.09216
2003/4/3 2:30,0.11088,0,0.04464,0.02592,0.36864,0.21312,0.08352,0,0.05904
2003/4/3 2:45,0.10512,0,0.0432,0.02304,0.16416,0.21456,0.08784,0,0.07632
2003/4/3 3:00,0.10368,0,0.04752,0.0216,0.01872,0.21456,0.0864,0,0.09504
2003/4/3 3:15,0.09936,0,0.04752,0.02448,0.42192,0.21312,0.0792,0,0.05472
2003/4/3 3:30,0.108,0,0.04176,0.02304,0.08352,0.21456,0.08928,0,0.08496
2003/4/3 3:45,0.10224,0,0.0432,0.0216,0.09504,0.216,0.08064,0,0.08496
2003/4/3 4:00,0.108,0,0.04608,0.02304,0.42192,0.21456,0.08496,0,0.06048
2003/4/3 4:15,0.10512,0,0.0432,0.02304,0.00288,0.21456,0.08352,0,0.10512
2003/4/3 4:30,0.1008,0,0.0576,0.02304,0.17136,0.21456,0.08352,0,0.07632
2003/4/3 4:45,0.10512,0,0.04752,0.02304,0.3384,0.21456,0.08064,0,0.06768
2003/4/3 5:00,0.10224,0,0.0432,0.0216,0,0.21456,0.08208,0,0.10224
2003/4/3 5:15,0.108,0,0.04752,0.02448,0.25632,0.21312,0.08352,0,0.06912
2003/4/3 5:30,0.108,0,0.04752,0.02304,0.26496,0.21456,0.08352,0,0.07056
2003/4/3 5:45,0.10656,0,0.0432,0.0216,0,0.21312,0.08496,0,0.0864
2003/4/3 6:00,0.10656,0,0.0432,0.02304,0.32544,0.216,0.08784,0,0.0648
2003/4/3 6:15,0.10368,0,0.0432,0.02448,0.2088,0.21312,0.08928,0,0.072
2003/4/3 6:30,0.10512,0,0.0432,0.0216,0,0.21456,0.08352,0,0.08496
2003/4/3 6:45,0.108,0,0.0432,0.02448,0.36288,0.21456,0.0864,0,0.06192
2003/4/3 7:00,0.10368,0,0.23472,0.02448,0.16992,0.22176,0.07776,0,0.07776
2003/4/3 7:15,0.18144,0,0.3744,0.87696,0,0.21168,0.0792,0,0.18144
2003/4/3 7:30,0.2736,0,0.53568,1.72512,0.40896,0.21312,0.1224,0,0.04464
2003/4/3 7:45,0.25776,0,0.82656,2.74176,0.31104,0.21312,0.63648,0,-0.0576
2003/4/3 8:00,0.2808,0,0.80352,0.04608,0,0.21168,0.8424,0,-0.06192
2003/4/3 8:15,0.2808,0,0.81936,0.02592,0.32688,0.21168,0.86976,0,-0.1008
2003/4/3 8:30,0.21168,0,0.8208,0.0216,0.19152,0.26064,0.792,0,-0.09792
2003/4/3 8:45,0.108,0,0.75312,0.0216,0,0.42048,0.0864,0,-0.00576
2003/4/3 9:00,0.1224,0,0.56304,0.02448,0.40032,0.42768,0.07776,0,-0.0432
2003/4/3 9:15,0.1368,0,0.41184,0.02304,0.11232,0.42912,0.08352,0,-0.01728
2003/4/3 9:30,0.1368,0,0.4104,0.02304,0.0648,0.42912,0.08496,0,-0.01728
2003/4/3 9:45,0.13392,0,0.41616,0.02448,0.41904,0.4104,0.07776,0,-0.0432
2003/4/3 10:00,0.14256,0,0.40896,0.0216,0.04032,0.40032,0.0864,0,-0.00864
2003/4/3 10:15,0.14832,0,0.41184,0.02304,0.13248,0.4392,0.0792,0,-0.02592
2003/4/3 10:30,0.14256,0,0.41184,0.0216,0.38592,0.44784,0.08208,0,-0.04464
2003/4/3 10:45,0.13536,0,0.40608,0.0216,0,0.42336,0.0864,0,-0.00432
2003/4/3 11:00,0.13248,0,0.41472,0.02304,0.216,0.42912,0.0792,0,-0.03024
2003/4/3 11:15,0.13392,0,0.41616,0.02304,0.30672,0.42912,0.08208,0,-0.03744
2003/4/3 11:30,0.13968,0,0.41472,0.0216,0,0.42336,0.07776,0,-0.00576
2003/4/3 11:45,0.144,0,0.4104,0.03312,0.3024,0.41184,0.08208,0,-0.03888
2003/4/3 12:00,0.14112,0,0.40464,0.02304,0.2736,0.40896,0.08784,0,-0.03168
2003/4/3 12:15,0.144,0,0.4248,0.0216,0,0.42192,0.07056,0,-0.01008
2003/4/3 12:30,0.13392,0,0.40752,0.02592,0.34416,0.42768,0.10944,0,-0.04608
2003/4/3 12:45,0.12672,0,0.42336,0.35136,0.47664,0.40752,0.08208,0,-0.08496
2003/4/3 13:00,0.108,0,0.46656,0.03456,0.54144,0.21168,0.08208,0,-0.05184
2003/4/3 13:15,0.108,0,0.41184,0.02592,0.54,0.39168,0.08352,0,-0.07632
2003/4/3 13:30,0.108,0,0.40608,0.0216,0.43344,0.38304,0.08208,0,-0.03456
2003/4/3 13:45,0.108,0,0.4104,0.0288,0.49824,0.34128,0.04608,0,-0.04032
2003/4/3 14:00,0.108,0,0.4104,0.02736,0.4752,0.21744,0.08064,0,-0.03168
2003/4/3 14:15,0.108,0,0.41184,0.03168,0.45216,0.396,0.0792,0,-0.04896
2003/4/3 14:30,0.108,0,0.4104,0.02304,0.36144,0.28224,0.08064,0,-0.0144
2003/4/3 14:45,0.108,0,0.4104,0.0216,0,0.41616,0.08352,0,-0.00864
2003/4/3 15:00,0.108,0,0.41184,0.03024,0.3528,0.25056,0.0792,0,-0.0216
2003/4/3 15:15,0.108,0,0.39744,0.0288,0.44928,0.21168,0.07488,0,-0.01296
2003/4/3 15:30,0.108,0,0.39744,0.0216,0.25776,0.3528,0.07344,0,-0.01296
2003/4/3 15:45,0.108,0,0.40464,0.0216,0,0.32832,0.0792,0,0.0072
2003/4/3 16:00,0.108,0,0.40896,0.02304,0.42336,0.21312,0.07488,0,-0.01008
2003/4/3 16:15,0.108,0,0.49104,0.0288,0.44064,0.21168,0.07344,0,-0.01728
2003/4/3 16:30,0.108,0,0.756,0.02448,0.07056,0.21456,0.07632,0,-0.02304
2003/4/3 16:45,0.108,0,0.88128,0.02304,0.1512,0.21312,0.07344,0,-0.02304
2003/4/3 17:00,0.10944,0,0.70128,0.02304,0.45072,0.21312,0.07488,0,-0.0144
2003/4/3 17:15,0.10512,0,0.64944,0.0288,0.33552,0.21024,0.07632,0,0.01152
2003/4/3 17:30,0.09792,0,1.37952,0.0216,0,0.4104,0.07488,0,-0.03744
2003/4/3 17:45,0.108,0,2.12256,0.0288,0.3024,0.42624,0.07488,0,-0.19296
2003/4/3 18:00,0.108,0,2.41056,0.02592,0.44208,0.4248,0.072,0,-0.24192
2003/4/3 18:15,0.108,0,2.39184,0.0216,0.12672,0.42624,0.07344,0,-0.2088
2003/4/3 18:30,0.108,0,2.42064,0.02448,0.10656,0.432,0.07344,0,-0.20592
2003/4/3 18:45,0.24048,0,2.43504,0.7128,0.46656,0.23328,0.07488,0,-0.29232
2003/4/3 19:00,0.22176,0,2.35728,0.02592,0.29664,0.20592,0.07632,0,-0.14256
2003/4/3 19:15,0.09936,0,2.088,0.0216,0,0.21024,0.07056,0,-0.11808
2003/4/3 19:30,0.10512,0,2.1096,0.02448,0.37152,0.21168,0.07488,0,-0.16128
2003/4/3 19:45,0.108,0,2.76912,0.02448,0.44064,0.21024,0.0864,0,-0.23904
2003/4/3 20:00,0.10512,0,2.63808,0.0216,0.08784,0.31392,0.11232,0,-0.17136
2003/4/3 20:15,0.08208,0,2.4192,0.02448,0.15408,0.24912,0.07776,0,-0.15264
2003/4/3 20:30,0.05328,0,1.91376,0.03168,0.43776,0.432,0.07632,0,-0.19872
2003/4/3 20:45,0.108,0,1.98576,0.02736,0.21312,0.43776,0.07632,0,-0.22752
2003/4/3 21:00,0.10512,0,1.88352,0.0216,0.01584,0.43632,0.07632,0,-0.15984
2003/4/3 21:15,0.108,0,1.74528,0.02592,0.44208,0.42768,0.07632,0,-0.19296
2003/4/3 21:30,0.1008,0,1.35936,0.02592,0.35568,0.43056,0.07344,0,-0.15552
2003/4/3 21:45,0.108,0,1.44288,0.0216,0,0.42624,0.07488,0,-0.14112
2003/4/3 22:00,0.108,0,1.42272,0.02304,0.32688,0.42768,0.07344,0,-0.17136
2003/4/3 22:15,0.108,0,1.20672,0.02736,0.43632,0.25488,0.08064,0,-0.12672
2003/4/3 22:30,0.108,0,0.8784,0.02304,0.0432,0.21024,0.0432,0,-0.03024
2003/4/3 22:45,0.108,0,0.61056,0.02304,0.18288,0.25776,1.43568,0,-0.21024
2003/4/3 23:00,0.108,0,0.3456,0.03888,0.42768,0.42768,0.07488,0,-0.04752
2003/4/3 23:15,0.26064,0,0.33696,0.02304,0.13536,0.40896,0.07488,0,-0.02736
2003/4/3 23:30,0.432,0,0.35136,0.02448,0.10224,0.21024,0.07488,0,-0.02736
2003/4/3 23:45,0.1368,0,0.44496,0.03312,0.43056,0.29952,0.07776,0,-0.0576
2003/4/4 0:00,0.10224,0,1.05408,0.02448,0.20304,0.324,0.08064,0,-0.10944
2003/4/4 0:15,0.108,0,1.58256,0.0216,0.02448,0.32544,0.0792,0,-0.14976
2003/4/4 0:30,0.108,0,1.78992,0.03024,0.43056,0.33264,0.70704,0,-0.31104
2003/4/4 0:45,0.10224,0,1.55232,0.02448,0.19584,0.34128,0.08208,0,-0.13104
2003/4/4 1:00,0.10224,0,1.64448,0.02304,0.0288,0.3456,0.07776,0,-0.1296
2003/4/4 1:15,0.10224,0,1.38528,0.03456,0.42624,0.33552,0.08352,0,-0.1368
2003/4/4 1:30,0.108,0,0.28944,0.02304,0.11088,0.24192,0.0792,0,0.02304
2003/4/4 1:45,0.10656,0,0.27504,0.02304,0.12528,0.21744,0.07056,0,0.03888
2003/4/4 2:00,0.108,0,0.22464,0.0288,0.42192,0.216,0.07488,0,0.03744
2003/4/4 2:15,0.108,0,0.2304,0.0216,0.03744,0.216,0.07776,0,0.07344
2003/4/4 2:30,0.10656,0,0.22896,0.02448,0.18864,0.216,0.07632,0,0.0504
2003/4/4 2:45,0.108,0,0.23184,0.03168,0.38448,0.216,0.07776,0,0.03312
2003/4/4 3:00,0.10656,0,0.22896,0.0216,0,0.216,0.0432,0,0.08064
2003/4/4 3:15,0.108,0,0.22752,0.02736,0.26928,0.216,0.07632,0,0.05904
2003/4/4 3:30,0.09936,0,0.2448,0.0288,0.30672,0.216,0.07632,0,0.05328
2003/4/4 3:45,0.10368,0,0.24912,0.0216,0,0.216,0.07776,0,0.07344
2003/4/4 4:00,0.10224,0,0.2448,0.03168,0.35424,0.216,0.07488,0,0.03312
2003/4/4 4:15,0.108,0,0.24048,0.02736,0.22032,0.216,0.0792,0,0.0576
2003/4/4 4:30,0.10656,0,0.24336,0.0216,0,0.216,0.07488,0,0.0792
2003/4/4 4:45,0.09936,0,0.24912,0.03312,0.42624,0.216,0.07488,0,0.03456
2003/4/4 5:00,0.10656,0,0.24624,0.02304,0.14832,0.216,0.07488,0,0.07056
2003/4/4 5:15,0.10224,0,0.24336,0.0216,0.07776,0.216,0.07632,0,0.072
2003/4/4 5:30,0.108,0,0.2448,0.02592,0.42048,0.216,0.07776,0,0.03024
2003/4/4 5:45,0.10224,0,0.24192,0.02448,0.07344,0.216,0.07344,0,0.07056
2003/4/4 6:00,0.10656,0,0.252,0.02304,0.13536,0.216,0.0792,0,0.06768
2003/4/4 6:15,0.09792,0,0.25344,0.02592,0.42048,0.216,0.05472,0,0.03024
2003/4/4 6:30,0.108,0,0.26784,0.02304,0.00288,0.21168,0.0648,0,0.06336
2003/4/4 6:45,0.10656,0,0.2592,0.02448,0.2016,0.21312,0.0792,0,0.04752
2003/4/4 7:00,0.10656,0,0.26784,0.02736,0.36,0.22032,0.0792,0,0.0216
2003/4/4 7:15,0.108,0,1.13472,0.0216,0,0.21312,0.08064,0,-0.02016
2003/4/4 7:30,0.11952,0,0.83232,1.18224,0.29088,0.2232,0.07488,0,-0.10512
2003/4/4 7:45,0.108,0,0.83664,1.04688,0.42192,0.21456,0.08064,0,-0.072
2003/4/4 8:00,0.108,0,1.11168,0.42624,0.03456,0.21168,0.07488,0,-0.10944
2003/4/4 8:15,0.108,0,0.99216,0.02304,0.2304,0.21168,0.08208,0,-0.02016
2003/4/4 8:30,0.108,0,1.10592,0.03024,0.34704,0.21456,0.396,0,-0.0864
2003/4/4 8:45,0.108,0,1.26576,0.31968,0.01008,0.29952,0.0792,0,-0.11664
2003/4/4 9:00,0.13104,0,1.27872,0.41184,0.29952,0.43776,0.08352,0,-0.16704
2003/4/4 9:15,0.14688,0,1.27872,0.06768,0.24912,0.39888,0.0864,0,-0.11232
2003/4/4 9:30,0.14688,0,1.26576,0.0216,0,0.4248,0.08208,0,-0.07776